Regional Weather Roundup
Issued by NWS

Home | Current Version | Previous Version | Graphics & Text | Print | Product List | Glossary On
Versions: 1 2 3 4 5 6 7 8 9 10 11 12 13 14 15 16 17 18 19 20 21 22 23 24 25 26 27 28 29 30 31 32 33 34 35 36 37 38 39 40 41 42 43 44 45 46 47 48 49 50
000
ASUS43 KDMX 252307
RWRIA

WEATHER ROUNDUP FOR IOWA
NATIONAL WEATHER SERVICE DES MOINES IA
600 PM CDT SAT APR 25 2015

NOTE: "FAIR" INDICATES FEW OR NO CLOUDS BELOW 12,000 FEET WITH NO
SIGNIFICANT WEATHER AND/OR OBSTRUCTIONS TO VISIBILITY.

* - THESE STATIONS ARE NOT NWS STATIONS...THUS NOT UNDER NWS
QUALITY CONTROL.  THEY ALSO DO NOT REPORT WEATHER SUCH
AS PRECIPITATION OR FOG.

IAZ001>003-012>014-020>022-031>034-043>046-260000-
   NORTHWEST IOWA

CITY           SKY/WX    TMP DP  RH WIND       PRES   REMARKS
CARROLL *      CLOUDY    52  45  76 E20       29.78R
CHEROKEE *     CLOUDY    55  43  62 NE10G21   29.80R
DENISON *      CLOUDY    52  46  82 E16G26    29.76R
LE MARS *      PTSUNNY   59  43  55 E12G21    29.81R
ORANGE CITY *  CLOUDY    55  41  58 E13G20    29.81R
SHELDON *      CLOUDY    55  41  58 E16       29.80R
SIOUX CITY     PTSUNNY   58  41  53 E15       29.79R
SPENCER        CLOUDY    54  42  64 NE15      29.83R
STORM LAKE *   CLOUDY    54  41  62 NE20      29.80R
$$

IAZ055>058-069>071-079>083-090>094-260000-
   SOUTHWEST IOWA

CITY           SKY/WX    TMP DP  RH WIND       PRES   REMARKS
ATLANTIC *     CLOUDY    50  46  87 NE10G21   29.76R
AUDUBON *      SUNNY     50  45  81 NE15      29.78R
CLARINDA *     CLOUDY    48  46  93 NE14G20   29.76R
COUNCIL BLFS * CLOUDY    50  50 100 NE17      29.77R
CRESTON *      CLOUDY    48  48 100 E20G25    29.73R
HARLAN  *      CLOUDY    50  50 100 NE13G23   29.80R
LAMONI         CLOUDY    49  46  90 NE14      29.71R
RED OAK *      CLOUDY    50  46  87 NE9G16    29.75R
SHENANDOAH *   CLOUDY    50  46  87 NE12      29.76R
$$

IAZ047>049-059>061-072>074-084-260000-
   CENTRAL IOWA

CITY           SKY/WX    TMP DP  RH WIND       PRES   REMARKS
AMES           CLOUDY    51  41  68 NE15G24   29.79R
ANKENY *       CLOUDY    52  45  76 NE16      29.77R
CHARITON *     CLOUDY    48  46  93 NE17      29.72R
DES MOINES     CLOUDY    52  43  71 E14G24    29.76R
GRINNELL*      CLOUDY    50  45  81 NE17      29.77R
KNOXVILLE *    CLOUDY    50  45  81 NE18G25   29.73R
MARSHALLTOWN   CLOUDY    50  42  74 E18G24    29.79R
PELLA *        PTSUNNY   50  48  93 E8G20     29.76R
PERRY *        CLOUDY    52  45  76 NE12G17   29.78R
$$

IAZ004>006-015-016-023>025-035-036-260000-
   NORTH CENTRAL IOWA

CITY           SKY/WX    TMP DP  RH WIND       PRES   REMARKS
ALGONA *       CLOUDY    52  43  71 NE13G20   29.83R
CLARION *      CLOUDY    54  41  62 E17G24    29.82R
ESTHERVILLE    CLOUDY    52  41  66 E18       29.83R
FORT DODGE *   CLOUDY    54  39  58 E17       29.82R
MASON CITY     CLOUDY    51  39  63 E15       29.85R
FOREST CITY *  CLOUDY    50  37  62 E12       29.84R
IOWA FALLS *   CLOUDY    52  39  62 NE14      29.82R
$$

IAZ007>011-017>019-026>030-037>042-050>054-066-260000-
   NORTHEAST IOWA

CITY           SKY/WX    TMP DP  RH WIND       PRES   REMARKS
CEDAR RAPIDS   CLOUDY    50  42  74 E17       29.77R
CHARLES CITY * CLOUDY    52  41  66 NE15G21   29.84R
CLINTON *      CLOUDY    48  39  71 NE18      29.81R
DECORAH *      CLOUDY    52  34  50 E13       29.83R
DUBUQUE        CLOUDY    49  36  61 NE15G23   29.81R
MONTICELLO *   CLOUDY    50  39  66 NE14G25   29.79R
OELWEIN *      CLOUDY    50  39  66 E13       29.83R
WATERLOO       CLOUDY    51  39  63 NE15      29.82R
$$

IAZ064-065-067-068-078-260000-
   EAST CENTRAL IOWA

CITY           SKY/WX    TMP DP  RH WIND       PRES   REMARKS
DAVENPORT      LGT RAIN  49  41  74 NE14      29.77R
IOWA CITY      CLOUDY    51  42  71 E13G23    29.78R
MT. PLEASANT * CLOUDY    48  46  93 NE18G26   29.73R
MUSCATINE *    CLOUDY    50  43  76 NE15G23   29.76R
QUAD CITIES    CLOUDY    50  41  71 NE15      29.76R
$$

IAZ062-063-075>077-085>089-095>099-260000-
   SOUTHEAST IOWA

CITY           SKY/WX    TMP DP  RH WIND       PRES   REMARKS
BURLINGTON     CLOUDY    47  45  93 NE15G24   29.71R FOG
FAIRFIELD *    CLOUDY    48  45  87 NE16G23   29.73R
FORT MADISON * CLOUDY    46  45  93 NE16G23   29.71R FOG
KEOKUK *       CLOUDY    48  46  93 NE18G24   29.68R
OSKALOOSA *    CLOUDY    48  45  87 NE17G23   29.74R
CENTERVILLE *  CLOUDY    48  48 100 NE17G23   29.72R
OTTUMWA        CLOUDY    49  45  86 NE16      29.72R
WASHINGTON *   CLOUDY    48  48 100 NE20G26   29.74R
$$

ABBREVIATIONS USED IN REMARKS
   TC - TEMPERATURES IN CELSIUS
  WCI - WIND CHILL INDEX
   HX - HEAT INDEX
  VSB - VISIBILITY
$$



USA.gov is the U.S. government's official web portal to all federal, state and local government web resources and services.